Torna al catalogo

STARLINK-32800

AttivoComunicazioniVLEO
NORAD 62743·PAYLOAD·🇺🇸 United States

Lanciato Jan 21, 2025 da Cape Canaveral Space Force Station

Loading…

Prossimi Passaggi (prossime 24 ore)

TLE

AggiornatoSource: CelesTrak SupGP

Epoca: Sep 15, 2026, 02:59 UTC

1 62743C 25014J   26258.12479167  .00001862  00000+0  67441-4 0  2584
2 62743  42.9995 171.9025 0001329 268.9586 108.2454 15.27572603    19

Traccia STARLINK-32800 in tempo reale con AllMySat

Download on the App Store